Regional Weather Roundup
Issued by NWS Charleston, SC

Current Version | Previous Version | Graphics & Text | Print | Product List | Glossary On
Versions: 1 2 3 4 5 6 7 8 9 10 11 12 13 14 15 16 17 18 19 20 21 22 23 24 25 26 27 28 29 30 31 32 33 34 35 36 37 38 39 40 41 42 43 44 45 46 47 48 49 50
000
ASUS42 KCHS 250110
RWRCHS
REGIONAL WEATHER ROUNDUP
NATIONAL WEATHER SERVICE CHARLESTON SC
900 PM EDT FRI OCT 24 2014

NOTE: "FAIR" INDICATES FEW OR NO CLOUDS BELOW 12,000 FEET WITH NO
SIGNIFICANT WEATHER AND/OR OBSTRUCTIONS TO VISIBILITY.

NOT ALL STATIONS ARE QUALITY CONTROLLED BY THE NATIONAL
WEATHER SERVICE. USE DATA WITH CAUTION...ESPECIALLY
DEWPOINT OBSERVATIONS.

SCZ027-030-031-034>040-042>050-250200-
...SOUTH CAROLINA...

CITY           SKY/WX    TMP DP  RH WIND       PRES   REMARKS
N CHARLESTON   MOCLDY    64  51  62 CALM      29.99S
WATERFRONT PRK   N/A     63 N/A N/A W3          N/A
FORT JOHNSON   NOT AVBL
JOHNS ISLAND   CLEAR     55  54  94 CALM      30.00S
PINOPOLIS      NOT AVBL
MONCKS CORNER  FAIR      57  57 100 CALM      29.99S
SUMMERVILLE    FAIR      57  55  94 CALM      30.00S
BEAUFORT MCAS  PTCLDY    58  51  78 CALM      29.99S
BEAUFORT ARPT  FAIR      57  54  88 CALM      29.99R
HILTON HEAD IS CLEAR     59  52  77 CALM      30.01S
GEORGETOWN     NOT AVBL
WALTERBORO     CLOUDY    59  55  88 CALM      30.00S
ORANGEBURG     CLOUDY    60  50  69 CALM      30.00R
BARNWELL       FAIR      59  50  72 N5        30.01R
AIKEN          FAIR      59  50  72 N3        30.04S
MANNING        FAIR      59  59 100 CALM      30.00R
KINGSTREE      NOT AVBL
COLUMBIA       PTCLDY    56  50  80 W5        30.01R
SUMTER         CLOUDY    61  49  65 NW3       29.98S
FLORENCE       CLOUDY    58  51  78 CALM      29.99R
MYRTLE BEACH   CLEAR     57  52  82 CALM      29.99S
N MYRTLE BEACH PTCLDY    54  52  93 CALM      29.98S

$$

GAZ063-065-086>088-099>101-113>116-118-119-134-136>141-150-250200-
...GEORGIA...

CITY           SKY/WX    TMP DP  RH WIND       PRES   REMARKS
SAVANNAH ARPT  PTCLDY    59  51  75 CALM      30.00R
HUNTER AAF     CLEAR     56  51  84 CALM      29.98R
FORT STEWART   CLEAR     55  50  83 CALM      29.99R
STATESBORO     NOT AVBL
SYLVANIA       PTCLDY    60  56  88 CALM      30.00F
CLAXTON        FAIR      54  54 100 CALM      30.00S
THOMSON        CLEAR     54  54 100 CALM      30.06R
AUGUSTA-BUSH   CLEAR     53  45  74 CALM      30.00R
AUGUSTA-DANIEL CLEAR     65  45  48 N5        30.01R
SWAINSBORO     FAIR      55  52  88 MISG      30.01S
VIDALIA        CLEAR     57  50  77 CALM      30.00S
ALMA           CLEAR     52  48  86 CALM      29.99S
WAYCROSS       CLEAR     58  55  89 CALM      30.00R
JESUP          FAIR      55  52  88 CALM      30.00S
BRUNSWICK      CLEAR     54  52  94 CALM      30.00S
SAINT SIMONS   CLEAR     59  52  77 CALM      29.99F

$$

SCZ027-028-034-036>038-045-046-048>050-GAZ119-141-250200-
...LAKE AND SUPPLEMENTAL COASTAL OBSERVATIONS...

STATION/POSITION TIME  TEMP    WIND        PRES    WAVE   SWELL
                       AIR SEA DIR/SP/G            HT/PER HT/PER/DIR
                 (UTC) (F)     (DEG/KT/KT) (MB)    (FT/S) (FT/S/D)
UPR LAKE MARION  NOT AVBL
WINYAH BAY       0000   60        CALM     1015.0S
LAKE MURRAY      0000   61      CALM  /  1 1015.6R
ACE BASIN NERRS  0000   58        CALM     1015.0S
FORT PULASKI     0100   63     210/  2/  2 1016.1R
SAPELO ISLAND    NOT AVBL

$$

ANZ835-935-AMZ111-154-330-350-352-354-374-450-454-472-250200-
...C-MAN AND BUOY OBSERVATIONS...

STATION/POSITION TIME  TEMP    WIND        PRES    WAVE   SWELL
                       AIR SEA DIR/SP/G            HT/PER HT/PER/DIR
                 (UTC) (F)     (DEG/KT/KT) (MB)    (FT/S) (FT/S/D)
FOLLY BEACH CMAN 0000   65     280/  2/  2 1016.1R
BUOY 41004       0100   69 78  330/  6/  8 1015.2R   3/11   3/11
BUOY 41008       0100   69 75   10/  4/  6 1015.5F   2/11   2/ 80/11
5E ST. MARYS GA  0100      76                N/A     2/11   2/ 80/11
FRYING PAN BUOY  0100   66 73  340/  4/  6 1016.1F   3/11   2/ 60/11
BUOY 41025       0100   66     300/ 12/ 16 1014.2R   4/10   3/ 40/10
CAPE LOOKOUT NC  0000   67     310/  8/ 10 1014.6R
BUOY 41002       0029   72 77  350/  8/ 10 1014.4R   4/ 9   5/ 20/ 9
BUOY 41010       0100   75 82   50/ 10/ 12 1013.4R   3/ 9   2/ 60/ 9
BUOY 41012       NOT AVBL
ST AUGUSTINE FL  0100   66     320/  8/ 10 1015.9R
CAPERS NEARSHORE NOT AVBL
FRIPP NEARSHORE  NOT AVBL


$$



USA.gov is the U.S. government's official web portal to all federal, state and local government web resources and services.